TIME,DELAY(SENSOR),PRES,OXYGEN,RAWTEMP,T(OPTODE),TCPHASE,FLUOR,BETA(BETA700),BETA(BETA412),BETA(BETA440),CDOM,C(CSC),ED(ED411.90),ED(ED443.80),ED(ED489.40),ED(ED554.70),LU(LU412.20),LU(LU443.80),LU(LU489.40),LU(LU555.00),COMP,TILTX,TILTY,CHECK
1345499883,5806,854.2100219726562000,161.8941040039062500,404.0349121093750000,10.4796800613403320,38.8934516906738300,53,99,98,80,78,13879,2146958354,2147517787,2147281929,2147499949,2147093394,2146937435,2147699373,2147118857,3230,-2,8,56619
1345503479,5805,962.4400024414062000,185.0688018798828000,480.4028930664062500,8.1362266540527340,38.5176811218261700,52,104,100,80,81,13873,2146957110,2147520676,2147288612,2147515684,2147091858,2146923428,2147714066,2147116306,698,-1,8,1169
1345507079,5805,977.1500244140625000,197.2041015625000000,493.7810974121094000,7.7223010063171390,37.9639816284179700,53,101,100,79,80,13868,2146956278,2147517184,2147293220,2147521078,2147090267,2146923117,2147720054,2147115977,3171,-1,8,31021
1345510679,5804,983.3800048828125000,199.0471038818359400,494.2763977050781000,7.7069559097290040,37.8578796386718750,53,104,99,80,80,13857,2146959360,2147517458,2147291236,2147519049,2147090340,2146926537,2147714550,2147117979,3211,-1,8,2132
1345514279,5805,988.5999755859375000,201.1660003662109400,496.0646972656250000,7.6515297889709470,37.7583084106445300,52,134,100,78,80,13856,2146957504,2147516873,2147295616,2147521718,2147089545,2146921307,2147717220,2147117458,3249,-2,8,51786
1345517879,5803,987.5399780273438000,201.0238952636718800,497.9946899414062500,7.5916919708251950,37.8009681701660160,53,103,99,80,81,13851,2146958601,2147519186,2147294491,2147521883,2147091712,2146923730,2147718464,2147119149,3460,-1,8,35251
1345521479,5806,993.7700195312500000,202.8643951416015600,498.2554016113281000,7.5836081504821780,37.6927604675293000,53,103,99,81,79,13856,2146958180,2147518025,2147292699,2147524644,2147091766,2146924882,2147713664,2147117494,332,-1,8,28049
1345525079,5804,996.2199707031250000,202.7700958251953000,498.3988037109375000,7.5791611671447750,37.7008514404296900,52,102,99,81,81,13855,2146959890,2147522624,2147294080,2147522349,2147091200,2146920612,2147715611,2147116918,3568,-1,8,6693
1345528679,5806,995.0399780273438000,202.6573028564453000,498.4527893066406000,7.5774850845336910,37.7089996337890600,53,103,98,79,80,13855,2146959670,2147516187,2147293622,2147520941,2147091995,2146924205,2147716132,2147117184,3337,-2,8,32737
1345532279,5808,994.2700195312500000,202.8820037841797000,498.9594116210937500,7.5617728233337400,37.7039413452148440,52,104,99,79,80,13857,2146959268,2147515702,2147296576,2147520429,2147093641,2146925531,2147719707,2147117696,52,-2,8,44738
1345535879,5806,996.0100097656250000,202.5030059814453000,499.0183105468750000,7.5599470138549805,37.7280006408691400,52,104,99,80,80,13853,2146962166,2147517357,2147293961,2147521234,2147094134,2146920018,2147714907,2147116123,207,-1,8,49248
1345539479,5807,998.1300048828125000,203.6584930419922000,499.2561035156250000,7.5525698661804200,37.6618003845214840,52,101,99,82,80,13855,2146958354,2147518144,2147293449,2147525339,2147089316,2146929536,2147717769,2147116553,696,-2,8,54281
1345543079,5808,992.8499755859375000,204.3002929687500000,500.6145019531250000,7.5104279518127440,37.6473808288574200,53,105,100,79,80,13853,2146956123,2147516617,2147294016,2147522459,2147091657,2146923492,2147715913,2147115666,987,-2,8,18007
1345546679,5803,997.8400268554688000,203.5718994140625000,500.2896118164062500,7.5205068588256840,37.6855087280273440,52,104,98,80,80,13850,2146957257,2147518098,2147290779,2147521389,2147093357,2146922660,2147720100,2147118610,3318,-2,8,8671
1345550279,5808,996.8699951171875000,204.5514068603515600,501.0523071289062500,7.4968419075012210,37.6391906738281250,53,101,99,79,80,13853,2146960768,2147515300,2147292068,2147522971,2147091803,2146923273,2147721417,2147115638,52,-1,8,21689
1345553879,5807,1000.5700073242188000,202.4595031738281200,498.9278869628906000,7.5627498626708980,37.7290687561035160,53,101,99,79,81,13849,2146958564,2147514130,2147290742,2147522112,2147091236,2146926043,2147716306,2147119515,132,-1,8,48400
1345557479,5806,1002.1500244140625000,200.7881927490234400,498.8688964843750000,7.5645799636840820,37.8302803039550800,52,100,99,79,80,13848,2146955702,2147518994,2147294500,2147523958,2147093248,2146927634,2147715547,2147119542,3409,-1,8,62217
1345561079,5806,1001.3400268554688000,203.9828948974609400,499.6889953613281000,7.5391421318054200,37.6502685546875000,52,102,99,78,80,13849,2146958171,2147517421,2147294308,2147522139,2147092617,2146927881,2147719131,2147119753,2804,-2,8,12912
1345564679,5805,1003.9299926757812000,202.0682067871093800,500.8847961425781000,7.5020418167114260,37.7869300842285160,53,102,100,79,80,13844,2146957385,2147518006,2147294619,2147524480,2147090944,2146926665,2147718985,2147115574,181,-1,8,57473
1345568279,5806,998.8099975585938000,203.2120056152343800,501.0062866210937500,7.4982700347900390,37.7204093933105500,53,115,99,80,80,13849,2146958637,2147515145,2147296082,2147519524,2147091913,2146927872,2147718619,2147116507,200,-1,8,30320
1345571879,5804,1003.1900024414062000,204.3471984863281200,501.7135925292969000,7.4763197898864750,37.6632194519043000,52,222,100,79,81,13845,2146961152,2147519424,2147294354,2147520246,2147090157,2146926308,2147719561,2147114962,3457,-2,8,16264
1345575479,5806,1000.8499755859375000,204.3016967773437500,501.6888122558594000,7.4770889282226560,37.6655197143554700,52,101,101,78,80,13845,2146959414,2147517348,2147294061,2147523712,2147091090,2146926774,2147717558,2147118299,3548,-1,8,59344
1345579079,5804,1000.6900024414062000,204.6838073730468800,501.2264099121094000,7.4914398193359375,37.6345787048339840,52,101,99,79,80,13832,2146958966,2147517010,2147295113,2147520201,2147092516,2146923072,2147717449,2147118016,3211,-2,8,45609
1345582679,5807,1004.7899780273438000,204.1320953369140600,500.7894897460937500,7.5049991607666020,37.6605415344238300,52,101,100,79,80,13844,2146960960,2147514907,2147293632,2147520429,2147088054,2146929060,2147715090,2147114898,3196,-2,8,19910
1345586279,5808,1002.6300048828125000,203.8650054931640600,501.6283874511719000,7.4789671897888180,37.6914215087890600,52,100,102,80,80,13845,2146956580,2147516425,2147296978,2147522889,2147088667,2146922752,2147716864,2147116032,235,-2,8,60044
1345589879,5808,1008.2999877929688000,203.5084075927734400,501.5350036621094000,7.4818630218505860,37.7110595703125000,53,101,99,79,81,13844,2146958025,2147517467,2147295094,2147522614,2147088182,2146922404,2147718043,2147119250,3544,-1,8,62561
1345593479,5809,1005.8200073242188000,204.1884002685547000,501.2525939941406000,7.4906291961669920,37.6650810241699200,53,103,100,79,81,13842,2146956882,2147518189,2147294546,2147519533,2147090496,2146921691,2147715931,2147117028,24,-2,8,33787
1345597079,5809,1004.7100219726562000,202.8865966796875000,501.7044067382812500,7.4766058921813965,37.7519683837890600,52,102,100,80,80,13842,2146962505,2147516809,2147294034,2147520457,2147092745,2146922322,2147723830,2147116233,30,-1,8,31674
1345600679,5804,998.4799804687500000,204.8032989501953000,502.5474853515625000,7.4504380226135250,37.6507911682128900,52,101,102,80,80,13839,2146958171,2147516425,2147294180,2147523126,2147095186,2146924068,2147719853,2147116096,2833,-2,8,12709
1345604279,5804,1001.3599853515625000,206.6562042236328000,504.1738891601562500,7.3999447822570800,37.5682411193847660,51,101,100,78,80,13844,2146954011,2147519378,2147296722,2147521060,2147090294,2146922788,2147716534,2147116370,3248,-2,8,14603
1345607879,5808,1001.9899902343750000,206.3321075439453000,503.1809997558594000,7.4307742118835450,37.5699501037597660,52,102,101,78,79,13843,2146955044,2147520429,2147293110,2147521910,2147090267,2146925787,2147720832,2147117293,3307,-1,8,20213
1345611479,5808,1001.2100219726562000,206.0794982910156200,504.1655883789062500,7.4002008438110350,37.6022415161132800,53,101,99,80,81,13836,2146959195,2147520859,2147294665,2147521709,2147093120,2146921764,2147717339,2147117467,111,-1,8,23250
1345615079,5805,1004.6900024414062000,205.5402069091797000,502.7945861816406000,7.4427661895751950,37.6109390258789060,53,103,100,80,80,13835,2146958390,2147515794,2147296219,2147520054,2147090331,2146923666,2147721243,2147116662,3257,-2,8,54068
1345618679,5805,1010.3099975585938000,204.6327056884765600,502.5357971191406000,7.4508008956909180,37.6606903076171900,52,104,99,78,80,13831,2146960457,2147520941,2147293238,2147519396,2147090066,2146924790,2147716809,2147117065,3329,-2,8,6850
1345622279,5805,1009.8599853515625000,203.5955047607422000,501.6225891113281000,7.4791469573974610,37.7070617675781250,52,109,99,79,80,13832,2146962404,2147519835,2147293741,2147524288,2147090477,2146921179,2147717714,2147114048,2936,-1,8,5368
1345625879,5804,1013.1300048828125000,201.9696960449218800,501.0986022949219000,7.4954071044921875,37.7971992492675800,52,101,98,78,80,13834,2146958646,2147521060,2147295204,2147521298,2147090816,2146924224,2147718061,2147118464,3310,-1,8,8651
1345629479,5807,1017.2199707031250000,201.7548065185547000,500.4453125000000000,7.5156760215759280,37.7988395690918000,52,101,100,78,80,13824,2146958454,2147515264,2147293796,2147521042,2147090413,2146925302,2147719853,2147117037,118,-1,8,4585
1345633079,5807,1009.5499877929688000,201.0760040283203000,500.5758972167969000,7.5116238594055180,37.8426704406738300,52,101,100,79,80,13826,2146956873,2147517842,2147295177,2147522340,2147091556,2146927625,2147718390,2147116288,189,-2,8,22928
1345636679,5809,1005.9699707031250000,203.8139953613281200,501.6932067871094000,7.4769539833068850,37.6952400207519500,53,103,100,79,81,13831,2146958976,2147517888,2147293732,2147520457,2147091995,2146928027,2147717248,2147118454,94,-2,8,14911
1345640279,5808,1009.5399780273438000,203.0458068847656200,502.7445068359375000,7.4443230628967285,37.7599105834960940,52,102,100,80,80,13831,2146956662,2147518308,2147292342,2147524598,2147091008,2146922596,2147717421,2147118299,42,-1,8,2153
1345642555,5805,1009.0300292968750000,203.3784027099609400,502.5450134277344000,7.4505147933959960,37.7363815307617200,52,102,102,78,80,13847,2146959588,2147514249,2147295442,2147518436,2147095652,2146921088,2147719643,2147117924,3369,-2,8,9923
